Location: Winthrop
(48.4780°N, 120.1850°W)
Time: 16:35:31
(UTC-07:00)

Explorer 7 - Pass Details

Date: 07 February 2023
Orbit: 478 x 657 km, 50.3° (Epoch: 30 March)

Event Time Altitude Azimuth Distance (km) Brightness Sun altitude
Rises 09:38:51 0° 206° (SSW) 2,584 10.6 17.5°
Reaches altitude 10° 09:41:20 10° 190° (S) 1,732 10.1 17.7°
Maximum altitude 09:44:22 21° 139° (SE) 1,208 11.9 18.1°
Drops below altitude 10° 09:47:32 10° 89° (E) 1,820 10.1 18.4°
Sets 09:50:13 0° 74° (ENE) 2,758 10.7 18.7°
